Date,TemperatureHighF,TemperatureAvgF,TemperatureLowF,DewpointHighF,DewpointAvgF,DewpointLowF,HumidityHigh,HumidityAvg,HumidityLow,PressureMaxIn,PressureMinIn,WindSpeedMaxMPH,WindSpeedAvgMPH,GustSpeedMaxMPH,PrecipitationSumIn
2013-1-11,77,76,76,70,69,68,81,79,73,30.13,30.11,12,6,13,0.00
2013-1-12,82,77,73,69,66,64,79,70,60,30.14,30.05,12,6,14,0.00
2013-1-13,81,76,72,66,62,58,79,63,50,30.10,30.02,14,2,20,0.00
2013-1-14,80,75,71,65,62,60,77,64,52,30.13,30.08,0,0,1,0.00
2013-1-15,80,76,71,66,64,63,78,68,59,30.10,30.02,12,0,12,0.41
2013-1-16,82,75,70,68,66,61,83,74,59,30.07,29.98,0,0,0,0.00
2013-1-17,79,73,68,69,67,65,92,81,70,30.07,29.97,0,0,0,0.00
2013-1-18,65,61,57,62,53,48,92,74,60,30.21,30.08,0,0,0,0.00
2013-1-19,75,67,63,65,63,61,97,87,68,30.18,30.06,0,0,0,0.00
2013-1-20,79,71,64,68,66,63,96,85,66,30.12,29.99,0,0,0,0.00
2013-1-21,80,74,69,68,66,65,90,77,63,30.05,29.96,0,0,0,0.00
2013-1-22,75,69,63,62,60,57,94,73,58,30.16,29.99,0,0,0,0.00
2013-1-23,75,71,68,55,54,52,64,53,48,30.25,30.15,16,4,26,0.25
2013-1-24,76,68,61,59,57,55,86,68,54,30.26,30.15,15,7,15,0.00
2013-1-25,77,70,63,58,55,52,79,62,43,30.25,30.14,14,6,20,0.00
2013-1-26,78,70,62,62,60,57,88,70,58,30.21,30.12,20,7,22,0.00
2013-1-27,80,74,70,65,64,62,82,70,58,30.23,30.14,20,10,24,0.00
2013-1-28,80,75,71,65,63,61,77,67,57,30.27,30.18,18,8,20,0.00
2013-1-29,81,76,72,67,66,64,79,71,63,30.19,30.09,20,8,20,0.00
2013-1-30,81,76,71,66,65,63,77,68,59,30.08,29.94,22,8,26,0.00
2013-1-31,81,73,67,71,66,59,90,78,64,30.07,29.93,20,9,30,0.00
2013-2-1,73,66,57,58,52,46,68,61,55,30.21,30.10,23,12,25,0.00
2013-2-2,76,69,60,56,53,50,77,58,45,30.21,30.09,18,8,20,0.00
2013-2-3,76,68,59,59,53,45,90,60,43,30.14,30.03,15,6,16,0.00
2013-2-4,74,64,58,53,48,46,70,55,42,30.10,30.04,16,7,17,0.00
2013-2-5,80,71,58,62,60,53,89,69,51,30.05,29.98,9,3,12,0.01
2013-2-6,81,72,62,67,63,60,96,73,55,30.07,29.99,12,4,16,0.00
2013-2-7,81,75,68,66,64,61,82,68,58,30.04,29.92,11,4,14,0.00
2013-2-8,80,75,66,71,68,64,93,80,66,30.02,29.90,17,7,20,0.00
2013-2-9,80,73,63,68,63,59,90,71,57,30.09,29.99,22,11,23,0.00
2013-2-10,80,75,70,63,61,59,72,62,50,30.20,30.10,15,9,23,0.00
2013-2-11,81,76,70,65,64,61,77,66,56,30.18,30.09,12,7,18,0.00
2013-2-12,84,77,71,68,66,63,83,69,56,30.08,29.97,17,8,17,0.00
2013-2-13,83,76,71,71,69,67,91,79,64,30.00,29.91,20,8,28,0.00
2013-2-14,84,77,71,72,70,68,94,80,64,29.97,29.88,20,7,26,0.00
2013-2-15,76,69,64,69,66,63,96,90,76,29.98,29.90,17,6,24,0.57
2013-2-16,72,67,64,66,58,49,96,74,44,29.99,29.85,28,14,37,0.34
2013-2-17,59,54,49,47,35,29,71,49,33,30.26,30.06,32,14,32,0.00
2013-2-18,60,53,50,48,42,35,72,66,54,30.26,30.21,12,9,20,0.00
2013-2-22,84,76,71,69,68,66,88,78,62,30.06,29.97,15,6,15,0.00
2013-2-23,84,76,72,71,69,67,93,79,65,30.01,29.91,16,6,16,0.00
2013-2-24,85,77,71,73,70,69,95,82,61,29.97,29.89,16,4,16,0.00
2013-2-25,84,77,73,72,70,68,95,78,58,29.89,29.79,16,6,16,0.00
2013-2-26,83,78,74,72,70,69,87,79,66,29.89,29.77,17,10,17,0.00
2013-2-27,84,76,69,72,68,65,88,78,63,29.94,29.84,11,6,11,0.00
2013-2-28,73,68,64,65,53,48,88,60,45,29.98,29.87,20,7,20,0.00
2013-3-1,66,64,60,56,54,52,84,71,62,29.94,29.88,12,6,15,0.00
2013-3-2,65,58,55,48,44,42,70,59,48,30.01,29.92,20,10,28,0.00
2013-3-3,63,58,51,46,44,39,83,60,50,30.04,29.92,30,12,37,0.00
2013-3-4,67,57,48,44,41,39,77,58,38,30.20,30.08,20,8,20,0.00
2013-3-5,76,68,54,55,52,47,84,58,46,30.14,30.06,11,5,14,0.00
2013-3-6,73,64,57,60,56,53,93,76,61,30.07,30.00,18,6,24,0.00
2013-3-7,70,60,49,49,44,38,73,57,32,30.15,30.06,28,9,28,0.00
2013-3-8,75,64,53,56,52,47,85,67,49,30.16,30.07,15,7,17,0.18
2013-3-9,76,66,59,57,54,50,82,66,49,30.14,30.07,17,9,22,0.00
2013-3-10,77,72,65,57,54,51,67,54,46,30.11,30.01,16,9,22,0.00
2013-3-11,78,73,68,62,59,55,69,61,55,30.05,29.92,18,9,22,0.00
2013-3-12,80,75,70,66,64,60,82,70,62,29.99,29.88,17,9,23,0.00
2013-3-13,76,68,58,64,55,48,88,64,42,30.07,29.95,26,12,28,0.00
2013-3-14,74,65,56,56,46,39,76,52,29,30.16,30.05,28,14,31,0.00
2013-3-15,74,66,57,54,49,42,76,57,45,30.21,30.11,22,12,28,0.00
2013-3-16,76,68,60,54,52,49,75,58,45,30.16,30.07,15,6,16,0.00
2013-3-17,79,72,66,61,58,54,73,61,51,30.10,29.99,17,6,17,0.00
2013-3-18,81,74,70,68,64,60,85,72,64,30.05,29.93,24,8,28,0.00
2013-3-19,74,72,67,69,66,64,95,84,74,29.99,29.89,12,5,15,0.51
2013-3-20,80,73,63,66,64,61,95,75,60,29.95,29.80,14,7,18,0.00
2013-3-21,77,70,63,61,58,56,93,68,49,29.91,29.81,22,8,22,0.00
2013-3-22,80,74,68,70,66,57,90,76,67,29.97,29.86,15,7,20,0.11
2013-3-23,83,78,73,72,71,69,94,80,64,29.96,29.80,16,6,20,0.00
2013-3-24,85,79,73,72,71,70,94,78,65,29.85,29.70,28,10,28,0.00
2013-3-25,80,76,70,72,65,48,95,72,44,29.96,29.72,25,9,28,0.83
2013-3-26,71,64,57,48,44,36,66,50,28,30.09,29.96,40,22,40,0.00
2013-3-27,70,60,47,50,44,38,76,57,40,30.22,30.12,35,14,35,0.00
2013-3-28,74,65,56,50,47,44,70,52,37,30.21,30.12,22,10,23,0.00
2013-3-29,76,68,61,55,51,45,66,55,45,30.24,30.15,20,10,24,0.00
2013-3-30,76,69,62,56,52,50,65,55,41,30.22,30.11,20,7,20,0.00
2013-3-31,81,72,68,66,60,55,77,66,54,30.15,30.00,16,7,23,0.00
2013-4-1,81,75,67,70,68,65,93,78,67,30.04,29.94,16,7,22,0.19
2013-4-2,83,75,69,66,64,60,86,71,47,30.07,29.97,12,6,16,0.00
2013-4-3,83,76,70,69,67,65,85,74,61,30.04,29.95,22,7,22,0.00
2013-4-4,83,77,73,72,70,67,87,78,67,30.01,29.90,22,8,22,0.00
2013-4-5,76,69,65,71,65,62,96,89,70,29.94,29.78,33,8,42,0.97
2013-4-6,79,69,60,63,59,56,90,70,48,30.01,29.91,24,14,26,0.01
2013-4-7,82,77,70,64,62,60,72,61,52,30.08,29.97,18,10,22,0.00
2013-4-8,82,76,71,64,62,60,71,62,54,30.09,30.00,20,9,20,0.00
2013-4-9,83,76,71,68,65,61,81,69,58,30.10,30.01,18,8,26,0.00
2013-4-10,84,79,74,70,69,65,84,73,62,30.04,29.95,17,9,23,0.00
2013-4-11,84,80,74,71,70,69,87,73,65,29.97,29.85,23,11,23,0.00
2013-4-12,85,80,75,75,72,70,90,78,67,29.93,29.85,20,8,20,0.06
2013-4-13,85,79,73,74,71,64,92,79,59,29.95,29.86,20,6,24,0.09
2013-4-14,86,80,76,73,72,71,86,75,61,29.93,29.86,17,8,24,0.00
2013-4-15,86,82,77,74,73,72,85,74,64,29.99,29.89,18,7,18,0.00
2013-4-16,87,81,77,73,71,69,86,71,59,30.07,29.98,17,8,20,0.00
2013-4-17,87,80,76,71,70,68,81,71,56,30.05,29.97,20,8,23,0.00
2013-4-18,87,82,75,71,69,64,80,66,57,30.01,29.94,22,9,24,0.00
2013-4-19,86,81,77,73,71,68,82,72,60,30.01,29.93,25,10,28,0.01
2013-4-20,85,79,74,73,71,69,87,78,66,30.00,29.93,15,7,20,0.30
2013-4-21,84,77,72,72,70,68,94,79,61,30.04,29.94,15,5,20,0.05
2013-4-22,80,75,70,71,69,67,91,81,68,30.01,29.94,14,6,20,0.27
2013-12-5,74,66,59,51,48,45,66,54,38,30.19,30.10,16,9,16,0.00
2013-12-6,76,68,62,55,52,50,65,56,45,30.22,30.13,18,9,18,0.00
2013-12-7,76,71,67,61,54,49,72,58,40,30.20,30.07,17,6,17,0.00
2013-12-8,81,74,67,68,65,61,93,74,54,30.10,29.94,18,8,18,0.19
2013-12-9,80,74,69,70,67,64,89,78,67,30.03,29.93,14,7,14,0.00
2013-12-10,83,78,71,72,68,60,89,72,49,30.08,29.96,10,4,10,0.00
2013-12-11,84,77,74,73,72,70,94,84,69,30.13,30.04,8,4,9,0.00
2013-12-12,80,75,69,72,68,61,91,79,65,30.14,30.04,23,8,28,0.01
2013-12-13,80,74,71,70,66,62,94,77,65,30.10,30.00,20,8,22,0.14
2013-12-14,82,77,72,71,70,68,90,81,69,30.04,29.93,14,6,20,0.00
2013-12-15,82,77,72,74,72,70,92,84,72,30.00,29.89,12,5,16,0.00
2013-12-16,77,70,66,70,63,60,92,78,61,30.09,29.96,20,13,28,0.11
2013-12-17,79,71,63,67,63,60,92,78,62,30.10,30.01,18,10,24,0.00
2013-12-18,75,71,66,64,60,56,84,70,57,30.16,30.06,18,10,25,0.00
2013-12-19,78,73,68,65,60,56,76,65,54,30.15,30.06,22,9,25,0.00
2013-12-20,81,76,73,70,69,67,86,77,67,30.10,30.02,22,10,26,0.00
2013-12-21,82,77,74,71,70,68,86,78,69,30.07,29.98,20,9,22,0.00
2013-12-22,82,78,75,71,70,69,83,77,69,30.08,30.01,25,9,26,0.00
2013-12-23,83,78,73,72,70,69,87,78,66,30.11,30.05,18,7,22,0.00
2013-12-24,81,73,68,71,68,62,97,84,61,30.11,29.99,24,6,28,0.02
2013-12-25,77,72,67,70,67,63,93,84,73,30.07,30.00,23,10,26,0.14
2013-12-26,81,74,69,71,68,67,93,83,64,30.08,29.98,15,6,20,0.12
2013-12-27,81,75,72,72,70,68,89,83,71,30.10,30.00,17,8,20,0.01
2013-12-28,81,76,74,71,70,69,87,82,72,30.09,29.95,23,10,24,0.00
2013-12-29,78,76,72,72,72,70,96,87,81,30.00,29.89,14,5,17,0.00
2013-12-30,78,74,71,72,70,69,98,89,75,30.04,29.91,12,3,14,0.01
2013-12-31,76,71,67,71,68,63,94,89,81,30.12,30.03,24,10,25,0.08
2014-1-1,82,77,71,72,70,68,89,80,69,30.11,29.99,20,9,20,0.00
2014-1-2,82,77,71,71,68,67,92,76,65,29.98,29.85,15,6,18,0.00